EJU14TW LICD-LIMC

Flight info

Callsign EJU14TW
Flight time 1h 47m
Altitude 36000
Route DOBIX DCT PAN DCT MEGAN DCT RONAB DCT RUVIP DCT BETOT DCT POKAV DCT TINTO DCT VELAD DCT NORNI DCT UPDIN M729 IDONA Y69 MEBUR
Aircraft A320/M-SDE2E3FGHIJ1RWXYZ/LB1

Departure

Time 2026-04-16 13:16
Airport Lampedusa Airport (LICD)

Arrival

Time 2026-04-16 15:04
Airport Milan Malpensa International Airport (LIMC)
Time Latitude Longitude Altitude Speed Heading
2026-04-16 12:39 35.50007 12.61907 58 ft 0 kts 52°
2026-04-16 13:12 35.50008 12.61907 58 ft 1 kts 52°
2026-04-16 13:12 35.49996 12.61928 52 ft 5 kts 154°
2026-04-16 13:12 35.49980 12.61930 56 ft 5 kts 172°
2026-04-16 13:12 35.49938 12.61938 53 ft 7 kts 171°
2026-04-16 13:13 35.49870 12.61950 58 ft 10 kts 170°
2026-04-16 13:13 35.49813 12.61916 53 ft 13 kts 242°
2026-04-16 13:13 35.49792 12.61774 52 ft 20 kts 261°
2026-04-16 13:13 35.49766 12.61577 52 ft 23 kts 262°
2026-04-16 13:14 35.49739 12.61381 50 ft 25 kts 260°
2026-04-16 13:14 35.49717 12.61217 47 ft 20 kts 261°
2026-04-16 13:14 35.49689 12.61021 46 ft 27 kts 260°
2026-04-16 13:14 35.49657 12.60884 45 ft 9 kts 235°
2026-04-16 13:15 35.49661 12.60840 44 ft 5 kts 331°
2026-04-16 13:15 35.49677 12.60867 44 ft 6 kts 92°
2026-04-16 13:15 35.49684 12.60960 46 ft 31 kts 81°
2026-04-16 13:15 35.49763 12.61537 52 ft 104 kts 80°
2026-04-16 13:16 35.49909 12.62638 127 ft 152 kts 80°
2026-04-16 13:16 35.50077 12.64014 531 ft 173 kts 78°
2026-04-16 13:16 35.50252 12.65484 1260 ft 174 kts 78°
2026-04-16 13:16 35.50436 12.66985 1965 ft 181 kts 78°
2026-04-16 13:17 35.50636 12.68527 2697 ft 184 kts 77°
2026-04-16 13:17 35.50856 12.70091 3282 ft 191 kts 76°
2026-04-16 13:17 35.51374 12.71610 3689 ft 199 kts 46°
2026-04-16 13:17 35.52627 12.72368 4049 ft 216 kts
2026-04-16 13:18 35.54224 12.72331 4375 ft 242 kts 358°
2026-04-16 13:18 35.55948 12.72129 5066 ft 253 kts 356°
2026-04-16 13:18 35.57716 12.71896 5910 ft 257 kts 356°
2026-04-16 13:18 35.59514 12.71674 6746 ft 262 kts 356°
2026-04-16 13:19 35.61343 12.71471 7537 ft 266 kts 357°
2026-04-16 13:19 35.63203 12.71285 8354 ft 270 kts 358°
2026-04-16 13:19 35.65087 12.71110 9190 ft 274 kts 358°
2026-04-16 13:19 35.67000 12.70944 10000 ft 277 kts 358°
2026-04-16 13:20 35.68970 12.70783 10460 ft 294 kts 358°
2026-04-16 13:20 35.71094 12.70614 10684 ft 317 kts 358°
2026-04-16 13:20 35.73361 12.70432 11051 ft 333 kts 358°
2026-04-16 13:20 35.75702 12.70238 11693 ft 340 kts 358°
2026-04-16 13:21 35.78072 12.70039 12387 ft 344 kts 358°
2026-04-16 13:21 35.80465 12.69686 13069 ft 350 kts 349°
2026-04-16 13:21 35.82785 12.68694 13743 ft 358 kts 336°
2026-04-16 13:21 35.84929 12.67081 14366 ft 364 kts 328°
2026-04-16 13:22 35.87036 12.65333 14999 ft 367 kts 328°
2026-04-16 13:22 35.89158 12.63566 15630 ft 370 kts 328°
2026-04-16 13:22 35.91294 12.61786 16263 ft 372 kts 328°
2026-04-16 13:22 35.93450 12.59991 16891 ft 375 kts 328°
2026-04-16 13:23 35.95622 12.58187 17519 ft 378 kts 328°
2026-04-16 13:23 35.97809 12.56371 18118 ft 380 kts 329°
2026-04-16 13:23 36.00015 12.54540 18660 ft 383 kts 329°
2026-04-16 13:23 36.02238 12.52696 19140 ft 387 kts 329°
2026-04-16 13:24 36.04479 12.50834 19632 ft 390 kts 329°
2026-04-16 13:24 36.06744 12.48950 20101 ft 394 kts 328°
2026-04-16 13:24 36.09028 12.47051 20579 ft 397 kts 328°
2026-04-16 13:24 36.11333 12.45135 21043 ft 401 kts 328°
2026-04-16 13:25 36.13658 12.43202 21499 ft 405 kts 328°
2026-04-16 13:25 36.16002 12.41251 21946 ft 408 kts 328°
2026-04-16 13:25 36.18364 12.39278 22391 ft 412 kts 328°
2026-04-16 13:25 36.20745 12.37281 22824 ft 415 kts 328°
2026-04-16 13:26 36.23144 12.35266 23256 ft 418 kts 328°
2026-04-16 13:26 36.25563 12.33234 23669 ft 422 kts 328°
2026-04-16 13:26 36.28004 12.31187 24032 ft 425 kts 328°
2026-04-16 13:26 36.30458 12.29133 24410 ft 427 kts 328°
2026-04-16 13:27 36.32927 12.27069 24777 ft 429 kts 328°
2026-04-16 13:27 36.35407 12.24989 25149 ft 431 kts 328°
2026-04-16 13:27 36.37897 12.22897 25513 ft 433 kts 328°
2026-04-16 13:27 36.40399 12.20795 25875 ft 435 kts 328°
2026-04-16 13:28 36.42910 12.18683 26238 ft 437 kts 328°
2026-04-16 13:28 36.45432 12.16561 26595 ft 439 kts 328°
2026-04-16 13:28 36.47966 12.14424 26952 ft 441 kts 328°
2026-04-16 13:28 36.50594 12.12462 27299 ft 441 kts 336°
2026-04-16 13:29 36.53405 12.10947 27638 ft 442 kts 340°
2026-04-16 13:29 36.56258 12.09496 27975 ft 444 kts 340°
2026-04-16 13:29 36.59122 12.08038 28299 ft 446 kts 340°
2026-04-16 13:29 36.61994 12.06572 28618 ft 448 kts 339°
2026-04-16 13:30 36.64883 12.05096 28926 ft 450 kts 339°
2026-04-16 13:30 36.67783 12.03612 29230 ft 452 kts 339°
2026-04-16 13:30 36.70695 12.02117 29506 ft 453 kts 339°
2026-04-16 13:30 36.73616 12.00614 29818 ft 455 kts 339°
2026-04-16 13:31 36.76551 11.99104 30110 ft 457 kts 339°
2026-04-16 13:31 36.79492 11.97761 30393 ft 456 kts 346°
2026-04-16 13:31 36.82579 11.96961 30762 ft 452 kts 354°
2026-04-16 13:31 36.85698 11.96748 31151 ft 448 kts
2026-04-16 13:32 36.88807 11.96876 31533 ft 446 kts
2026-04-16 13:32 36.91900 11.97006 31916 ft 444 kts
2026-04-16 13:32 36.94978 11.97136 32297 ft 442 kts
2026-04-16 13:32 36.98044 11.97267 32679 ft 440 kts
2026-04-16 13:33 37.01096 11.97398 33063 ft 438 kts
2026-04-16 13:33 37.04137 11.97526 33438 ft 436 kts
2026-04-16 13:33 37.07168 11.97650 33801 ft 435 kts
2026-04-16 13:33 37.10189 11.97774 34140 ft 434 kts
2026-04-16 13:34 37.13202 11.97900 34425 ft 433 kts
2026-04-16 13:34 37.16213 11.98026 34685 ft 433 kts
2026-04-16 13:34 37.19222 11.98151 34944 ft 433 kts
2026-04-16 13:34 37.21215 11.98235 35109 ft 433 kts
2026-04-16 13:35 37.24221 11.98363 35352 ft 432 kts
2026-04-16 13:35 37.27227 11.98490 35594 ft 432 kts
2026-04-16 13:35 37.30230 11.98616 35828 ft 432 kts
2026-04-16 13:35 37.33237 11.98740 35993 ft 432 kts
2026-04-16 13:36 37.36245 11.98865 36039 ft 433 kts
2026-04-16 13:36 37.42271 11.99115 36043 ft 433 kts
2026-04-16 13:37 37.48296 11.99368 36039 ft 433 kts
2026-04-16 13:37 37.54318 11.99620 36045 ft 433 kts
2026-04-16 13:38 37.60352 11.99513 36045 ft 434 kts 358°
2026-04-16 13:38 37.66381 11.99134 36048 ft 434 kts 357°
2026-04-16 13:39 37.72415 11.98780 36049 ft 434 kts 358°
2026-04-16 13:39 37.78455 11.98507 36054 ft 434 kts 358°
2026-04-16 13:40 37.84491 11.98260 36054 ft 434 kts 359°
2026-04-16 13:40 37.90534 11.98013 36058 ft 434 kts 359°
2026-04-16 13:41 37.96571 11.97753 36061 ft 434 kts 359°
2026-04-16 13:41 38.02603 11.97482 36061 ft 434 kts 358°
2026-04-16 13:42 38.08634 11.97207 36064 ft 433 kts 359°
2026-04-16 13:42 38.14660 11.96937 36057 ft 433 kts 359°
2026-04-16 13:43 38.20678 11.96669 36054 ft 433 kts 359°
2026-04-16 13:43 38.26697 11.96409 36054 ft 433 kts 359°
2026-04-16 13:44 38.32715 11.96140 36058 ft 433 kts 359°
2026-04-16 13:44 38.38731 11.95868 36060 ft 432 kts 359°
2026-04-16 13:45 38.44742 11.95600 36060 ft 432 kts 359°
2026-04-16 13:45 38.50746 11.95334 36062 ft 432 kts 359°
2026-04-16 13:46 38.56747 11.95059 36064 ft 431 kts 359°
2026-04-16 13:46 38.62700 11.94786 36067 ft 431 kts 359°
2026-04-16 13:47 38.68689 11.94518 36068 ft 430 kts 359°
2026-04-16 13:47 38.74673 11.94259 36066 ft 430 kts 359°
2026-04-16 13:48 38.80654 11.93991 36067 ft 430 kts 359°
2026-04-16 13:48 38.86627 11.93715 36066 ft 429 kts 359°
2026-04-16 13:49 38.92596 11.93446 36066 ft 429 kts 359°
2026-04-16 13:49 38.98557 11.93176 36068 ft 429 kts 359°
2026-04-16 13:50 39.04517 11.92906 36071 ft 428 kts 359°
2026-04-16 13:50 39.10468 11.92632 36070 ft 428 kts 359°
2026-04-16 13:51 39.16416 11.92358 36070 ft 427 kts 359°
2026-04-16 13:51 39.22354 11.92094 36070 ft 427 kts 359°
2026-04-16 13:52 39.28291 11.91827 36067 ft 427 kts 359°
2026-04-16 13:52 39.34224 11.91556 36069 ft 427 kts 359°
2026-04-16 13:53 39.40156 11.91287 36070 ft 426 kts 359°
2026-04-16 13:53 39.46089 11.91014 36075 ft 426 kts 359°
2026-04-16 13:54 39.52015 11.90736 36073 ft 426 kts 359°
2026-04-16 13:54 39.57942 11.90455 36076 ft 426 kts 359°
2026-04-16 13:55 39.63865 11.90184 36078 ft 426 kts 359°
2026-04-16 13:55 39.69785 11.89913 36079 ft 426 kts 359°
2026-04-16 13:56 39.75708 11.89644 36079 ft 426 kts 359°
2026-04-16 13:56 39.81627 11.89365 36077 ft 426 kts 359°
2026-04-16 13:57 39.87520 11.88631 36079 ft 428 kts 348°
2026-04-16 13:57 39.93142 11.86020 36075 ft 430 kts 341°
2026-04-16 13:58 40.01512 11.81832 36073 ft 430 kts 341°
2026-04-16 13:58 40.07094 11.79045 36074 ft 429 kts 341°
2026-04-16 13:59 40.12672 11.76249 36085 ft 429 kts 341°
2026-04-16 13:59 40.18244 11.73442 36079 ft 429 kts 341°
2026-04-16 14:00 40.23815 11.70633 36074 ft 429 kts 341°
2026-04-16 14:00 40.29380 11.67823 36076 ft 428 kts 341°
2026-04-16 14:01 40.34938 11.65010 36083 ft 428 kts 341°
2026-04-16 14:01 40.40496 11.62199 36082 ft 428 kts 341°
2026-04-16 14:02 40.46050 11.59383 36082 ft 428 kts 341°
2026-04-16 14:02 40.51604 11.56557 36087 ft 428 kts 341°
2026-04-16 14:03 40.57151 11.53724 36092 ft 427 kts 341°
2026-04-16 14:03 40.62689 11.50891 36092 ft 427 kts 341°
2026-04-16 14:04 40.68221 11.48060 36090 ft 426 kts 341°
2026-04-16 14:04 40.73744 11.45229 36092 ft 426 kts 342°
2026-04-16 14:05 40.79267 11.42398 36092 ft 425 kts 342°
2026-04-16 14:05 40.84774 11.39568 36100 ft 424 kts 342°
2026-04-16 14:06 40.90266 11.36734 36094 ft 424 kts 342°
2026-04-16 14:06 40.95759 11.33904 36091 ft 423 kts 342°
2026-04-16 14:07 41.01238 11.31071 36096 ft 422 kts 342°
2026-04-16 14:07 41.06707 11.28235 36092 ft 422 kts 342°
2026-04-16 14:08 41.12166 11.25404 36090 ft 421 kts 342°
2026-04-16 14:08 41.17625 11.22568 36086 ft 421 kts 342°
2026-04-16 14:09 41.23041 11.19745 36081 ft 421 kts 342°
2026-04-16 14:09 41.28493 11.16895 36084 ft 421 kts 341°
2026-04-16 14:10 41.33944 11.14047 36087 ft 421 kts 342°
2026-04-16 14:10 41.39391 11.11203 36080 ft 421 kts 341°
2026-04-16 14:11 41.44839 11.08347 36074 ft 421 kts 341°
2026-04-16 14:11 41.50285 11.05485 36071 ft 421 kts 341°
2026-04-16 14:12 41.55735 11.02621 36073 ft 421 kts 341°
2026-04-16 14:12 41.61185 10.99740 36067 ft 421 kts 341°
2026-04-16 14:13 41.66640 10.96849 36067 ft 422 kts 341°
2026-04-16 14:13 41.72073 10.93980 36065 ft 422 kts 341°
2026-04-16 14:14 41.77515 10.91099 36064 ft 423 kts 341°
2026-04-16 14:14 41.82894 10.88240 36061 ft 423 kts 341°
2026-04-16 14:15 41.88374 10.85326 36061 ft 424 kts 341°
2026-04-16 14:15 41.93863 10.82406 36063 ft 424 kts 341°
2026-04-16 14:16 41.99356 10.79478 36061 ft 425 kts 340°
2026-04-16 14:16 42.04854 10.76530 36062 ft 426 kts 340°
2026-04-16 14:17 42.10289 10.73332 36063 ft 427 kts 337°
2026-04-16 14:17 42.15653 10.69881 36059 ft 428 kts 336°
2026-04-16 14:18 42.21023 10.66420 36063 ft 428 kts 336°
2026-04-16 14:18 42.25504 10.63585 36058 ft 428 kts 336°
2026-04-16 14:19 42.30916 10.60192 36061 ft 429 kts 336°
2026-04-16 14:19 42.36328 10.56788 36066 ft 429 kts 336°
2026-04-16 14:20 42.41742 10.53365 36067 ft 430 kts 336°
2026-04-16 14:20 42.47161 10.49930 36065 ft 430 kts 336°
2026-04-16 14:21 42.52562 10.46500 36065 ft 431 kts 336°
2026-04-16 14:21 42.57991 10.43046 36076 ft 431 kts 336°
2026-04-16 14:22 42.63424 10.39583 36067 ft 432 kts 335°
2026-04-16 14:22 42.68861 10.36107 36061 ft 432 kts 335°
2026-04-16 14:23 42.74309 10.32627 36070 ft 433 kts 335°
2026-04-16 14:23 42.79757 10.29134 36074 ft 433 kts 335°
2026-04-16 14:24 42.85209 10.25631 36078 ft 433 kts 335°
2026-04-16 14:24 42.90667 10.22119 36080 ft 434 kts 335°
2026-04-16 14:25 42.96125 10.18595 36077 ft 434 kts 335°
2026-04-16 14:25 43.01586 10.15061 36080 ft 434 kts 335°
2026-04-16 14:26 43.07056 10.11529 36077 ft 435 kts 334°
2026-04-16 14:26 43.12525 10.07987 36071 ft 435 kts 334°
2026-04-16 14:27 43.17997 10.04427 36069 ft 436 kts 334°
2026-04-16 14:27 43.23473 10.00859 36080 ft 436 kts 334°
2026-04-16 14:28 43.28907 9.97280 36079 ft 436 kts 333°
2026-04-16 14:28 43.34279 9.93289 36075 ft 436 kts 330°
2026-04-16 14:29 43.39541 9.89109 36089 ft 437 kts 329°
2026-04-16 14:29 43.44815 9.84951 36092 ft 437 kts 330°
2026-04-16 14:30 43.50115 9.80850 36093 ft 437 kts 330°
2026-04-16 14:30 43.55420 9.76757 36099 ft 437 kts 330°
2026-04-16 14:31 43.60723 9.72648 36100 ft 437 kts 330°
2026-04-16 14:31 43.65980 9.68551 36104 ft 437 kts 330°
2026-04-16 14:32 43.71265 9.64431 36104 ft 436 kts 330°
2026-04-16 14:32 43.76547 9.60309 36106 ft 436 kts 330°
2026-04-16 14:33 43.81823 9.56193 36105 ft 435 kts 330°
2026-04-16 14:33 43.87093 9.52070 36103 ft 435 kts 329°
2026-04-16 14:34 43.92354 9.47932 36104 ft 434 kts 329°
2026-04-16 14:34 43.97642 9.43879 36104 ft 434 kts 335°
2026-04-16 14:35 44.03428 9.41459 36013 ft 436 kts 346°
2026-04-16 14:35 44.06379 9.40494 35762 ft 436 kts 345°
2026-04-16 14:35 44.09331 9.39516 35181 ft 438 kts 345°
2026-04-16 14:36 44.12305 9.38522 34345 ft 441 kts 345°
2026-04-16 14:36 44.15302 9.37520 33373 ft 446 kts 345°
2026-04-16 14:36 44.18328 9.36515 32424 ft 449 kts 345°
2026-04-16 14:36 44.21378 9.35506 31453 ft 452 kts 346°
2026-04-16 14:37 44.24448 9.34490 30656 ft 452 kts 346°
2026-04-16 14:37 44.27483 9.33481 30053 ft 446 kts 346°
2026-04-16 14:37 44.30485 9.32479 29369 ft 441 kts 346°
2026-04-16 14:37 44.33447 9.31487 28746 ft 435 kts 346°
2026-04-16 14:38 44.36367 9.30509 28125 ft 429 kts 346°
2026-04-16 14:38 44.39253 9.29543 27530 ft 424 kts 346°
2026-04-16 14:38 44.42099 9.28588 26943 ft 418 kts 346°
2026-04-16 14:38 44.44916 9.27640 26331 ft 414 kts 346°
2026-04-16 14:39 44.47702 9.26701 25774 ft 410 kts 346°
2026-04-16 14:39 44.50459 9.25776 25198 ft 406 kts 346°
2026-04-16 14:39 44.53191 9.24862 24644 ft 402 kts 346°
2026-04-16 14:39 44.55897 9.23954 24100 ft 398 kts 346°
2026-04-16 14:40 44.58575 9.23053 23550 ft 394 kts 346°
2026-04-16 14:40 44.61222 9.22161 23004 ft 389 kts 346°
2026-04-16 14:40 44.63832 9.21282 22544 ft 383 kts 346°
2026-04-16 14:40 44.66401 9.20416 22097 ft 376 kts 346°
2026-04-16 14:41 44.68906 9.19569 21943 ft 364 kts 346°
2026-04-16 14:41 44.71322 9.18748 21812 ft 352 kts 346°
2026-04-16 14:41 44.73619 9.17756 21663 ft 340 kts 336°
2026-04-16 14:41 44.75633 9.16086 21421 ft 334 kts 322°
2026-04-16 14:42 44.77288 9.13800 21048 ft 335 kts 309°
2026-04-16 14:42 44.78544 9.11033 20592 ft 336 kts 302°
2026-04-16 14:42 44.79718 9.08189 20144 ft 336 kts 302°
2026-04-16 14:42 44.80891 9.05362 19732 ft 334 kts 302°
2026-04-16 14:43 44.82058 9.02557 19333 ft 333 kts 302°
2026-04-16 14:43 44.83213 8.99788 19005 ft 330 kts 302°
2026-04-16 14:43 44.84372 8.97008 18655 ft 328 kts 302°
2026-04-16 14:43 44.85522 8.94244 18268 ft 327 kts 302°
2026-04-16 14:44 44.86682 8.91449 17864 ft 325 kts 302°
2026-04-16 14:44 44.87815 8.88703 17476 ft 323 kts 302°
2026-04-16 14:44 44.88943 8.85970 17100 ft 322 kts 302°
2026-04-16 14:44 44.90053 8.83284 16738 ft 320 kts 301°
2026-04-16 14:45 44.91173 8.80576 16371 ft 319 kts 301°
2026-04-16 14:45 44.92288 8.77880 16012 ft 318 kts 301°
2026-04-16 14:45 44.93398 8.75194 15668 ft 316 kts 301°
2026-04-16 14:45 44.94502 8.72517 15327 ft 315 kts 301°
2026-04-16 14:46 44.95599 8.69854 14994 ft 313 kts 301°
2026-04-16 14:46 44.96690 8.67196 14674 ft 312 kts 301°
2026-04-16 14:46 44.97773 8.64551 14351 ft 311 kts 300°
2026-04-16 14:46 44.98899 8.61958 14033 ft 309 kts 308°
2026-04-16 14:47 45.00414 8.59836 13697 ft 307 kts 324°
2026-04-16 14:47 45.02282 8.58416 13335 ft 305 kts 340°
2026-04-16 14:47 45.04342 8.57709 12969 ft 305 kts 349°
2026-04-16 14:47 45.06416 8.57140 12612 ft 303 kts 349°
2026-04-16 14:48 45.08485 8.56574 12263 ft 302 kts 349°
2026-04-16 14:48 45.10543 8.56012 11922 ft 300 kts 349°
2026-04-16 14:48 45.12587 8.55449 11585 ft 299 kts 349°
2026-04-16 14:48 45.14623 8.54882 11248 ft 297 kts 348°
2026-04-16 14:49 45.16646 8.54317 10938 ft 295 kts 348°
2026-04-16 14:49 45.18631 8.53761 10811 ft 286 kts 349°
2026-04-16 14:49 45.20547 8.53223 10670 ft 276 kts 348°
2026-04-16 14:49 45.22405 8.52701 10229 ft 270 kts 349°
2026-04-16 14:50 45.24238 8.52194 9680 ft 268 kts 349°
2026-04-16 14:50 45.26060 8.51692 9101 ft 265 kts 349°
2026-04-16 14:50 45.27862 8.51192 8524 ft 263 kts 349°
2026-04-16 14:50 45.29457 8.50754 8029 ft 260 kts 352°
2026-04-16 14:51 45.31210 8.50904 7743 ft 253 kts 19°
2026-04-16 14:51 45.32667 8.52243 7487 ft 253 kts 49°
2026-04-16 14:51 45.33456 8.54450 7234 ft 253 kts 77°
2026-04-16 14:51 45.33793 8.56918 6971 ft 255 kts 78°
2026-04-16 14:53 45.28405 8.67895 5748 ft 245 kts 169°
2026-04-16 14:53 45.26732 8.68352 5636 ft 244 kts 168°
2026-04-16 14:54 45.25066 8.68809 5512 ft 244 kts 168°
2026-04-16 14:54 45.23403 8.69266 5387 ft 243 kts 168°
2026-04-16 14:54 45.21747 8.69725 5264 ft 241 kts 166°
2026-04-16 14:54 45.20254 8.70649 5142 ft 232 kts 142°
2026-04-16 14:55 45.19210 8.72337 5013 ft 228 kts 116°
2026-04-16 14:55 45.18784 8.74467 4886 ft 225 kts 91°
2026-04-16 14:55 45.19029 8.76638 4766 ft 224 kts 66°
2026-04-16 14:55 45.19891 8.78449 4624 ft 223 kts 41°
2026-04-16 14:56 45.21214 8.79579 4503 ft 223 kts 17°
2026-04-16 14:56 45.22721 8.80118 4364 ft 224 kts 13°
2026-04-16 14:56 45.24234 8.80637 4247 ft 224 kts 14°
2026-04-16 14:56 45.25747 8.81163 4137 ft 224 kts 14°
2026-04-16 14:57 45.27256 8.81689 4034 ft 223 kts 14°
2026-04-16 14:57 45.28784 8.82069 4025 ft 223 kts
2026-04-16 14:57 45.30342 8.82085 4023 ft 224 kts 358°
2026-04-16 14:57 45.31891 8.81870 4015 ft 224 kts 351°
2026-04-16 14:58 45.33427 8.81482 4015 ft 224 kts 349°
2026-04-16 14:58 45.36496 8.80639 4013 ft 225 kts 349°
2026-04-16 14:58 45.38033 8.80218 4014 ft 225 kts 349°
2026-04-16 14:59 45.39570 8.79798 4010 ft 225 kts 349°
2026-04-16 14:59 45.41080 8.79384 4009 ft 215 kts 349°
2026-04-16 14:59 45.42511 8.78992 4002 ft 205 kts 349°
2026-04-16 14:59 45.43905 8.78610 4009 ft 203 kts 349°
2026-04-16 15:00 45.45294 8.78229 3869 ft 204 kts 349°
2026-04-16 15:00 45.46694 8.77845 3617 ft 206 kts 348°
2026-04-16 15:00 45.48103 8.77458 3375 ft 204 kts 348°
2026-04-16 15:00 45.49011 8.77209 3194 ft 197 kts 348°
2026-04-16 15:01 45.50343 8.76840 2922 ft 194 kts 348°
2026-04-16 15:01 45.51646 8.76465 2618 ft 188 kts 348°
2026-04-16 15:01 45.52908 8.76094 2302 ft 182 kts 348°
2026-04-16 15:01 45.54125 8.75741 2111 ft 173 kts 348°
2026-04-16 15:02 45.55242 8.75451 2029 ft 157 kts 350°
2026-04-16 15:02 45.56304 8.75193 1682 ft 153 kts 350°
2026-04-16 15:02 45.57340 8.74947 1425 ft 149 kts 349°
2026-04-16 15:02 45.58349 8.74661 1323 ft 146 kts 347°
2026-04-16 15:03 45.59358 8.74382 1190 ft 147 kts 349°
2026-04-16 15:03 45.60360 8.74093 1033 ft 148 kts 349°
2026-04-16 15:03 45.61370 8.73807 830 ft 148 kts 349°
2026-04-16 15:03 45.62359 8.73536 746 ft 136 kts 349°
2026-04-16 15:04 45.63159 8.73309 736 ft 93 kts 348°
2026-04-16 15:04 45.63629 8.73182 739 ft 45 kts 350°
2026-04-16 15:04 45.63910 8.73104 738 ft 40 kts 349°
2026-04-16 15:04 45.64176 8.73030 735 ft 33 kts 348°
2026-04-16 15:05 45.64310 8.72908 736 ft 22 kts 307°
2026-04-16 15:05 45.64391 8.72725 735 ft 19 kts 302°
2026-04-16 15:05 45.64462 8.72648 735 ft 11 kts 313°
2026-04-16 15:05 45.64464 8.72551 736 ft 9 kts 258°
2026-04-16 15:06 45.64452 8.72466 735 ft 9 kts 258°
2026-04-16 15:06 45.64439 8.72368 734 ft 12 kts 260°
2026-04-16 15:06 45.64423 8.72240 735 ft 14 kts 261°
2026-04-16 15:06 45.64464 8.72135 736 ft 12 kts 330°
2026-04-16 15:07 45.64540 8.72108 736 ft 11 kts 349°
2026-04-16 15:07 45.64610 8.72089 735 ft 10 kts 349°
2026-04-16 15:07 45.64673 8.72076 736 ft 8 kts
2026-04-16 15:07 45.64715 8.72113 736 ft 7 kts 39°
2026-04-16 15:08 45.64735 8.72137 734 ft 0 kts 40°